CAPE
2178 2233 2503 2194 1748 2114 2423 2431 2484 2601 2698 2733 2339 2279 2374 2457 2593 2530 2502 2318 2236 2106 2237 2084 2234 2316 2052 2096 2401 2601 2449 2366 2395 2257 1892 1495 1696 2070 1986 1759 1793 1503 1617 1797 1974 1788 1849 1752 1906 1706 1797 1997 1961 1874 1739 1832 1797 1697 1517 1702 1652 1541 1517 1518 1374 1398 1408 1520 1343 1448 1392 1378 1435 1379 1312 1449 1464 1598 1714 1664 1635 1666 1651 1473 1457
2663 2848 2726 2646 2162 1583 1978 2112 2340 2400 2454 2554 2555 2371 2486 2686 2740 2735 2252 2246 2036 2162 2131 1803 1616 1765 2194 2030 2100 2151 2556 2448 2455 2263 2077 1581 1536 1908 1845 1807 1702 1638 1681 1760 1870 1823 1519 1754 1953 1668 1708 1795 1766 1661 1628 1770 1706 1617 1688 1681 1522 1462 1494 1358 1332 1456 1341 1400 1440 1490 1561 1471 1436 1487 1496 1614 1689 1556 1538 1527 1535 1526 1450 1498 1245
2683 2722 2886 2963 2823 2067 1877 2339 2471 2667 2696 2447 2384 2566 2738 2925 2983 2776 2332 2346 2458 2378 2436 2095 1951 1820 1800 1800 1972 2293 2374 2431 2276 2198 1841 1772 1393 1680 2600 1649 1656 1889 1877 1954 1761 1737 1572 1626 1869 1964 1715 1714 1762 1687 1582 1641 1755 1703 1723 1622 1594 1484 1386 1424 1322 1262 1317 1350 1381 1537 1520 1612 1691 1793 1754 1716 1578 1576 1544 1309 1316 1456 1346 1366 1325
2855 2873 2634 2750 2820 2658 2417 2322 2561 2721 2857 2456 2488 2643 2898 2915 3171 3135 2926 2765 2354 2326 2500 2067 1794 1380 1732 1708 1796 2166 2394 2438 1972 1871 1777 1936 1618 1530 1920 2396 1767 1758 1677 1754 1714 1623 1566 1790 1754 1872 1787 1701 1773 1494 1438 1415 1510 1572 1505 1570 1375 1468 1447 1376 1356 1265 1306 1260 1493 1543 1649 1689 1694 1778 1717 1665 1573 1496 1347 1395 1343 1478 1309 1528 1402
3115 3040 2868 2585 2608 2720 2501 2599 2639 2827 2745 2948 2937 2721 2812 2950 3226 3129 3000 2925 2268 2354 2512 1762 1441 1519 1262 1501 1703 2009 2468 2372 2253 2097 1832 1741 1799 1315 1461 2168 2810 2168 2181 1739 1709 1603 1672 1631 1578 1541 1787 1664 1504 1461 1641 1585 1541 1676 1682 1657 1392 1448 1513 1449 1454 1275 1357 1530 1427 1528 1674 1650 1644 1720 1687 1625 1619 1339 1402 1355 1335 1375 1396 1262 1322
3103 3214 3038 2698 2603 2659 2507 2650 3041 3180 3110 3234 2591 2629 2590 2863 2977 2875 2718 2812 2433 2335 2251 1788 1486 1634 1422 1617 1838 2094 2272 2215 2285 2106 1989 1723 1704 1512 1300 1668 2426 2780 2822 2063 1978 1774 1931 1774 1557 1524 1583 1534 1492 1428 1484 1646 1640 1641 1719 1742 1928 1474 1336 1619 1632 1386 1609 1784 1623 1687 1711 1664 1642 1643 1589 1505 1609 1564 1408 1209 1250 1246 1434 1410 1319
3288 3228 3067 2884 2488 2598 2738 2638 3106 3131 2741 3040 2684 2616 2649 2873 2902 2732 2841 2640 2469 2275 2269 1883 1659 1526 2264 1826 1605 1922 2171 2338 2251 2193 2122 2164 2096 1530 1284 1535 1709 2247 2610 2789 2087 2073 1922 1662 1756 1712 1716 1522 1654 1288 1450 1810 1587 1599 1845 1935 1636 1572 1581 1750 1755 1633 1712 1841 1776 1692 1698 1694 1551 1601 1642 1408 1304 1233 1429 1152 1295 1374 1402 1237 1208
3413 3246 3126 2943 2631 2577 2663 3266 3376 2990 2968 3203 2760 2455 2873 2901 2991 2750 2837 2537 2706 2516 2282 2113 1641 1381 2181 1758 1820 2085 2177 2426 2287 2033 1876 2179 2147 1866 1501 1511 1644 1857 1962 2310 2690 2326 2156 1870 1880 1969 1550 1580 1564 1584 1744 1771 1803 1844 1840 1847 1969 1848 1814 1838 1860 1857 1820 1763 1751 1757 1683 1490 1417 1428 1268 1418 1249 1291 1265 1257 1322 1253 1313 1304 1307
3572 3422 3184 3088 2889 2761 2704 3048 3225 2958 3238 3131 2693 2653 2689 2286 3110 3018 2719 3130 2688 2276 2121 1933 1452 1254 1494 1221 1411 2119 2068 2431 2218 2210 2148 2298 2006 1316 1594 1651 1729 1834 1876 2169 2017 1849 2384 2056 2280 2149 1871 1731 1480 1568 1963 2053 1993 2137 2137 2065 2008 1829 1940 1870 1728 1640 1746 1706 1673 1630 1632 1510 1490 1531 1454 1448 1385 1313 1195 1211 1182 1129 1149 1125 1106
3645 3587 3366 3142 3031 2933 2771 3256 3122 3160 3229 2917 2862 2835 2742 2608 2899 3044 3150 2651 2515 2426 2104 1702 1380 1028 1302 1188 1811 1933 2060 2302 2453 2412 2459 2262 2046 1551 1426 1484 1584 1565 1468 1558 1642 2074 2059 2186 2285 2270 2299 2068 1914 1951 1950 2078 1877 1820 1997 1792 1993 1871 1664 1861 1916 1845 1738 1600 1692 1569 1480 1453 1470 1381 1381 1369 1325 1256 1257 1099 1014 1034 1050 1056 570
3536 3528 3366 3159 3109 3004 2940 3329 3012 3304 3270 2803 2639 2822 2918 3070 3010 3305 3322 2719 2635 2302 2526 2232 1668 1404 1221 1349 1782 2049 2065 2258 2469 2427 2313 1974 1634 1513 1203 1689 1622 1826 1944 1829 1531 1901 1972 2002 1964 1918 1809 2239 2260 1953 1971 2000 2037 1958 1942 1943 1851 1849 1658 1761 1815 1810 1739 1675 1570 1485 1554 1527 1458 1345 1317 1309 1237 1120 1058 884 979 956 1083 520 257
3516 3488 3388 3314 3178 3058 3137 3172 3133 3266 3166 2681 2643 2916 3086 3253 3507 3148 2780 2297 2609 2526 2291 1786 1155 1394 1588 1511 1747 1987 2210 2278 2145 2154 2240 2033 1860 1740 1290 1749 1766 1733 1755 1826 1748 1634 1838 1907 1925 1866 1886 2084 2162 2309 2157 1926 1850 1922 1861 1934 1797 1724 1839 1815 1733 1706 1709 1476 1576 1540 1484 1376 1327 1182 1186 1048 963 973 746 858 862 1077 647 256 257
3387 3473 3380 3465 3317 3397 3324 3298 3238 3135 3376 2990 2825 2945 3524 3365 3465 3232 2853 2599 2013 2028 2002 862 1248 925 1482 1412 1669 1984 2384 2027 2000 1710 1658 1630 1648 1690 1651 1459 1822 1889 1998 1856 1935 1726 1778 1908 1799 1808 1755 2057 1790 2197 2243 2257 2181 2029 2032 2041 1850 1887 1888 1772 1636 1584 1760 1740 1562 1532 1358 1383 1281 1026 898 743 788 695 552 677 748 700 250 150 166
3324 3458 3558 3476 3574 3229 3475 3548 3552 3402 3572 3562 3621 3457 3654 3426 3446 3469 3316 2888 2622 1746 1301 1234 877 464 397 700 1131 1698 2095 1480 1383 1220 1397 1372 1296 1462 1451 994 804 1378 1782 2155 2171 1949 1918 1779 1828 1833 1831 1693 1858 1915 2017 1854 1990 2141 2401 1984 1929 1867 1860 1764 1898 1804 1574 1412 1161 1003 1279 1236 1002 830 591 600 681 524 424 516 618 430 260 161 144
3333 3391 3488 3392 3419 3440 3490 3730 3623 3578 3700 3592 3547 3603 3626 3434 3544 3144 3085 3132 2933 2700 2077 1864 622 692 927 419 258 140 1290 1047 952 1008 873 972 1155 903 939 693 741 1561 1885 1952 1988 2060 1871 1854 2078 2120 2096 1823 1729 1667 1702 1731 1783 2032 2255 2128 2017 1876 1891 1732 1676 1609 1564 1497 1275 1166 1167 1035 829 751 502 611 642 448 407 407 537 327 233 121 172
2980 3282 3178 3266 3452 3358 3288 3464 3872 3795 3758 3622 3587 3406 3643 3637 3312 3334 2944 2684 2510 2495 2804 2327 1097 715 298 425 348 116 94 255 398 776 666 693 804 654 974 1045 1019 1800 1992 1671 1339 2088 2215 2100 2114 2179 2135 2075 1918 1735 1747 1833 1837 2166 1969 1844 2193 1766 1666 1857 1511 1564 1685 1522 1097 1209 1150 1026 782 644 698 660 634 590 379 474 370 154 188 211 165
2839 3137 3011 3249 3449 3360 3428 3363 3558 3814 3595 3485 3540 3109 3308 3337 3512 3627 3453 2756 2608 2424 2792 2306 1591 1347 641 550 232 209 49 146 0 430 114 186 332 459 826 1231 973 1764 2067 1738 2271 2335 1951 2134 2484 2255 2214 2242 2110 1982 1994 2111 2212 2240 2202 1893 1916 1974 1770 1676 1751 1694 1292 1266 1300 1430 1215 982 800 592 540 606 447 535 614 487 101 137 162 183 179
2832 2979 2977 3070 3323 3284 3377 3282 3358 3573 3597 3122 3154 3534 3589 3313 3386 3331 3390 3358 2984 2590 2359 2961 1940 1474 1709 678 627 341 200 286 4 164 610 6 210 468 709 940 920 1638 2466 2055 2124 2102 2229 1987 2767 2506 2279 2065 2034 1965 2036 2056 2186 2130 2270 2291 2357 2097 1950 1781 1677 1726 1556 1517 1463 1499 1316 782 775 690 690 630 480 338 506 242 388 172 65 159 118
2700 2781 2992 3162 3239 3370 3344 3250 3182 3408 3492 3585 3385 3200 2933 3296 3385 3312 3373 3594 3226 3060 2789 2575 2750 2370 1128 594 596 729 561 542 522 263 149 1264 207 36 169 426 595 972 1412 1595 1262 1650 1953 2095 2025 1908 2148 2045 2046 2086 2092 2080 2073 1908 1954 1952 1868 1895 1984 1770 1683 1714 1714 1638 1657 1424 1209 839 686 724 964 566 460 408 282 252 79 145 134 148 266
2878 2971 3079 3113 3180 3319 3392 3256 3221 2930 3400 3284 3147 2904 3102 3644 3581 3553 3747 3672 3615 3191 2937 2335 1492 2074 1614 1681 1550 1816 1324 635 270 256 464 414 483 452 58 78 446 574 735 967 1079 1211 1790 2726 2262 2391 2223 2235 2184 1970 1790 1936 2201 2341 2108 2060 2097 1998 1913 1850 1718 1692 1671 1766 1747 1388 1121 885 797 790 986 788 407 429 350 234 209 284 300 325 402
3174 3133 3062 3042 3156 3215 3357 3316 3182 3145 3266 3017 3071 2981 3337 3500 3930 3789 3703 3873 3757 3538 3450 3371 2810 1676 1784 2058 1631 1474 1176 1034 1139 660 614 502 398 234 357 426 247 363 765 862 914 1332 1796 1961 2276 1956 2004 2321 2380 2152 1891 1867 2184 2589 2295 1944 1853 1913 1854 1890 1758 1682 1645 1680 1771 1454 1082 956 993 1001 850 593 621 548 524 433 312 274 396 434 497
3130 3196 3260 3176 3166 3186 3170 3100 3135 2862 2942 2682 3086 3320 3422 3509 3388 3543 3816 3805 3982 3735 3551 3572 3246 2926 2027 1927 1819 1658 1312 1034 660 594 477 456 234 106 16 4 106 930 759 761 946 1106 1262 1522 2121 1764 1709 2046 2332 2544 2286 2228 2275 2121 2107 1848 1858 1925 1916 1956 1864 1842 1740 1752 1729 1336 1330 1067 1154 1192 998 746 470 557 524 502 512 467 487 583 636
2746 3088 3164 3092 3106 3223 2950 2930 3000 2993 3096 3047 3215 2875 2991 3159 3133 3404 3916 3979 3983 3968 3724 3760 3630 3489 2944 2458 2139 1387 1331 936 821 686 346 493 544 261 46 66 117 136 1329 469 886 822 1391 1827 1745 1336 1869 1974 2171 2300 2535 2384 2354 1819 1892 1566 1490 1639 1910 1968 1925 1879 1880 1776 1768 1530 1289 1328 1228 1193 997 645 414 391 511 566 660 667 694 744 801
3118 2883 2998 2725 3063 3197 3031 2955 3088 3142 3169 3172 2886 2942 2681 2838 3086 3380 3396 3686 4033 4078 3805 3854 3672 3127 2917 2063 2003 1582 1178 1298 757 963 881 772 582 427 410 699 656 454 611 1017 745 415 598 1082 1320 1332 1883 1875 2103 2467 2545 2670 2356 2018 2116 1842 1473 1455 1600 1588 1904 1970 1867 1795 1668 1611 1408 1370 1300 1081 960 690 481 440 471 595 713 902 911 894 762
2998 2817 2846 2979 3110 3280 3223 3175 3211 3158 3211 3251 3369 3350 3199 3115 3290 3328 3205 3232 3385 3572 3881 3738 3667 3016 2616 2345 1994 1578 1358 1434 1037 670 810 1065 928 594 358 374 383 396 870 417 493 564 560 563 791 1175 1456 2053 2278 2742 2529 2336 2130 2424 1856 1872 1528 1502 1364 1509 1656 1655 1726 1696 1624 1515 1295 1250 1364 1252 996 824 814 853 729 825 959 1098 1087 965 728
2612 2886 2757 2959 3040 3202 3360 3303 3362 3393 3449 3520 3516 3502 3467 3181 3304 3317 3106 3319 3409 3520 3573 3325 3388 3344 3103 2681 2290 1941 1761 1457 1367 1309 1221 1021 868 553 586 921 401 297 1007 913 1423 402 624 784 813 1465 1704 1841 1819 2435 2591 1873 1826 2102 1801 1684 1873 1402 1231 1178 1237 1339 1407 1564 1527 1447 1272 1181 1199 1207 1144 1015 1087 1103 1077 1019 951 936 922 809 699
2757 3049 3177 3199 3239 3280 3344 3293 3336 3415 3423 3411 3339 3524 3586 3371 3306 3420 3152 3286 3461 3456 3448 3306 3192 3187 3209 3172 2802 2537 2342 2282 1974 1696 1492 1170 964 813 851 690 496 662 817 1302 1162 918 401 732 919 921 1804 2218 2081 2294 2428 2211 1581 1908 1860 1862 2013 1767 1234 913 956 978 1079 1218 1352 1333 1198 1092 1033 1051 1055 1080 1149 1302 1254 1239 1181 1138 997 813 695
2974 3105 3133 3043 3173 3196 3281 3169 3353 3314 3383 3410 3428 3266 3654 3475 3466 3236 3228 3474 3683 3566 3577 3423 3249 3312 3193 3213 3140 2802 2504 2449 2150 1962 1749 1466 1128 1123 1044 786 708 685 799 1098 1138 1270 1027 807 1181 1215 1734 2043 2198 2217 2004 1512 1586 1604 1719 1792 2284 2353 1539 964 703 710 792 840 982 1091 1044 964 879 861 980 1011 1026 1167 1232 1206 1105 1103 1000 944 876
2751 2802 2827 3014 3045 3140 3126 2971 3248 3376 3317 3452 3393 3507 3770 3620 3313 3445 3343 3331 3663 3818 3602 3435 3571 3054 3152 3167 3235 3117 2976 2633 2515 2362 2027 1734 1434 1234 1004 690 996 883 848 927 1188 1170 1242 498 477 2671 1531 2148 2462 1923 1914 2067 1550 1409 1860 1944 2063 2533 2135 1176 744 552 546 652 700 729 800 817 746 664 715 818 964 1048 1079 1031 998 974 920 876 779
2334 2329 2588 2809 2973 3026 3148 3198 3197 3252 3166 3180 3420 3496 3724 3544 3425 3632 3489 3597 3745 3719 3779 3659 3586 3545 3346 3224 3139 3189 3161 2710 2564 2559 2238 1980 1580 1400 1141 1075 1195 932 998 1049 1092 1212 1240 1241 627 825 2374 2083 2014 2044 1963 2162 1517 1408 1634 1972 2044 2159 1707 1193 854 618 452 403 521 547 534 522 504 475 479 558 676 806 843 859 871 829 818 750 586
2380 2525 2659 2589 2742 2954 3079 3138 3256 3271 3296 3239 3461 3523 3620 3558 3449 3571 3605 3671 3722 3693 3921 3882 3678 3735 3768 3615 3597 3449 3341 3067 2677 2544 2506 2211 1800 1419 1387 1434 1373 1113 1115 1233 1134 1253 1028 867 1150 643 748 1895 908 929 1552 1817 1714 1211 1478 1809 2152 1725 1141 1298 752 574 462 248 210 256 362 295 261 215 203 214 263 372 456 548 591 608 649 562 453
1925 2331 2408 2401 2560 2610 2688 2741 2669 2894 3122 3120 3257 3454 3570 3498 3430 3295 3252 3489 3683 3489 3531 3521 3415 3564 3819 3728 3767 3716 3506 3231 2954 2642 2620 2490 2333 2164 1741 1504 1530 1382 1358 1332 1213 1269 1656 1227 1098 1274 1278 940 1634 1338 1389 1413 1375 892 1538 1798 2070 1360 1332 1282 847 490 370 61 58 68 82 76 22 13 48 80 103 128 200 289 336 381 351 286 253
1739 1949 2226 2358 2528 2575 2414 2586 2520 2803 3190 3145 3212 3394 3581 3670 3656 3719 3587 3411 3521 3494 3702 3826 3533 3620 3776 3780 3820 3828 3644 3405 3201 2977 2552 2490 2436 2308 2193 1836 1451 1547 1356 1361 1258 1290 1524 1709 1342 1075 1085 1237 1134 1729 1504 1583 1781 1670 993 1494 1865 1718 1688 1569 1496 922 346 66 1 0 0 0 0 0 1 12 28 52 96 115 137 141 180 154 85
1805 1750 2051 2144 2381 2475 2364 2573 2797 2848 3196 3421 3229 3247 3479 3621 3619 3609 3642 3641 3295 3577 3858 3919 3889 3809 3806 3911 3879 3812 3800 3467 3243 3117 2974 2655 2197 2160 2172 2154 1792 1665 1528 1360 1474 1430 1422 1556 1931 1635 1400 1609 1197 1821 1575 1500 1482 2075 1978 1569 1598 1707 1729 1632 1479 1508 822 453 11 0 0 0 0 0 0 0 0 1 1 3 1 0 0 158 0
1844 1723 1906 1924 2315 2598 2462 2574 2942 2920 3150 3153 3162 3231 3388 3607 3686 3522 3504 3686 3635 3630 3767 3832 3757 3892 3846 3819 3684 3771 3744 3493 3392 3241 3052 2834 2590 2350 2256 2088 1985 1812 1770 1559 1395 1536 1569 1628 1774 1618 1396 1846 1460 1336 1819 1758 1589 1697 1860 1989 1750 1646 1650 1568 1463 1349 967 603 485 234 0 0 0 0 0 0 0 0 0 0 0 0 0 0 0
1773 1847 1883 1987 2328 2720 2604 2732 2894 2889 2964 3007 3063 3205 3414 3560 3653 3756 3787 3812 3803 3725 3650 3666 3678 3826 3768 3824 3662 3562 3688 3653 3596 3509 3293 3042 2901 2760 2619 2541 2369 2139 2072 1927 1508 1458 1575 1666 1854 1883 1765 1677 1694 1742 1518 1344 1232 1465 1642 1514 1754 1705 1685 1665 1600 1478 1208 714 526 520 505 244 0 0 0 0 0 0 0 0 0 0 0 0 0
1726 1888 2049 2116 2368 2695 2428 2580 2746 2843 2851 3000 3082 2936 3064 3246 3450 3458 3632 3821 3846 3816 3770 3773 3737 3811 3836 3683 3583 3706 3834 3720 3641 3567 3426 3385 3117 2872 2808 2784 2657 2454 2236 2096 1973 1715 1638 1729 1896 1996 2106 1998 1795 1560 1412 1344 1312 1587 1818 1712 1513 1621 1916 1577 1182 1140 866 635 492 463 452 427 231 0 0 0 0 0 0 0 0 0 0 0 0
1749 1801 2024 2118 2189 2488 2466 2496 2668 2867 2925 3026 3102 3034 2843 2983 3262 3271 3400 3662 3621 3748 3785 3781 3813 3869 3697 3810 3735 3685 3732 3705 3568 3567 3662 3575 3439 3143 3000 2862 2764 2604 2472 2357 2183 2053 1955 1917 1957 2022 2125 2023 1934 1946 1944 1666 1291 1176 1293 1778 1905 1612 1614 1492 1143 1012 1036 1035 1134 906 424 83 47 0 0 0 0 0 0 0 0 0 0 0 0
1779 1796 1852 2110 2220 2319 2571 2576 2545 2787 2926 2951 3083 3138 3042 3065 3210 3338 3191 3407 3511 3573 3674 3575 3544 3611 3714 3688 3718 3730 3712 3700 3628 3557 3665 3679 3520 3352 3210 3120 2962 2787 2624 2509 2371 2232 2136 2080 2052 2029 2018 1959 1860 1840 1814 1823 1483 1255 1247 1301 1455 1729 2011 1610 1493 1288 1042 973 798 542 572 721 622 423 278 0 0 0 0 0 0 0 0 0 0
1803 1806 1824 1918 2228 2287 2407 2548 2612 2722 2904 2892 3028 3129 3126 3077 3157 3244 3321 3294 3370 3477 3543 3560 3453 3376 3514 3586 3466 3544 3662 3748 3689 3639 3607 3559 3608 3555 3407 3345 3138 2913 2695 2537 2441 2305 2221 2092 2013 2028 2068 2112 2173 2074 1760 1696 1426 1402 1336 1229 1359 1479 1600 2166 1711 1220 1150 1124 1138 948 715 738 685 587 479 376 86 0 0 0 0 0 0 0 0
1844 1865 1884 1878 2063 2264 2261 2489 2589 2617 2653 2735 2727 2936 3044 3109 3084 2997 3216 3334 3294 3337 3469 3459 3513 3598 3519 3428 3396 3402 3482 3575 3088 2980 3050 3088 3366 3465 3597 3513 3307 3125 2943 2744 2669 2678 2372 2330 2354 2323 2268 2294 2301 2276 2183 2158 2096 1993 1943 1944 1672 1527 1452 1308 1451 1572 1420 1367 1317 1234 1163 1152 1134 1074 903 775 581 164 0 0 0 0 0 0 0
1992 1977 1994 2007 2011 2132 2281 2454 2594 2601 2594 2639 2571 2237 2426 2888 3115 2958 3062 3311 3318 3236 3410 3571 3468 3486 3538 3491 3214 3271 2946 2760 2567 2423 2309 2254 2211 2481 3050 3389 3274 2967 2804 2771 2509 2620 2613 2358 2635 2541 2527 2513 2487 2461 2369 2293 2247 2211 2083 1999 1743 1779 1911 2112 2170 2198 2159 2043 1862 1736 1610 1476 1428 1373 1287 1196 1068 940 659 243 60 12 3 0 0
2089 2176 2172 2096 2060 2069 2178 2273 2418 2456 2517 2526 2222 1981 1866 1892 2536 3086 3142 3300 3392 3370 3324 3488 3549 3412 3436 3549 3614 3544 2893 2472 2357 2303 2291 2233 2225 2230 2232 2219 2245 2891 3006 2750 2823 2733 2584 2482 2456 2184 2300 2398 2635 2516 2383 2180 2074 2054 2275 2434 2511 2222 1976 2188 2248 2246 2027 2101 1934 1854 1859 1431 1170 1295 1428 1422 1432 1370 1227 1034 747 109 0 0 0
2298 2239 2301 2196 2283 2136 2088 2188 2239 2354 2479 2209 2006 1830 1708 1657 1682 2502 2874 3035 3038 3232 3322 3261 3353 3401 3446 3434 3445 3538 3556 3567 3466 3367 2604 2286 2244 2236 2228 2243 2244 2230 2243 2458 2644 2670 2810 2603 2532 2452 2565 2576 2562 2723 2575 2350 2582 2715 2662 2414 2104 2034 1870 1751 1814 1804 1814 1659 1656 1655 1699 1604 1465 1473 1395 1325 1420 1480 1388 1297 1250 1057 688 101 0
2231 2370 2295 2200 2288 2315 2242 2393 2360 2309 2440 2169 1901 1738 1652 1588 1603 1729 2392 2792 2904 3038 3200 3334 3323 3418 3533 3491 3459 3395 3642 3045 2995 3254 3597 3662 2833 2474 2305 2244 2235 2248 2258 2239 2217 2178 2551 2599 2682 2542 2582 2731 2965 2925 2828 2717 2800 2755 2230 2316 1814 1526 1492 1804 1806 1698 1634 1432 1506 1513 1469 1387 1400 1430 1382 1423 1398 1419 1434 1408 1369 1353 1157 883 494
2329 2400 2223 2281 2363 2507 2463 2465 2564 2516 2444 2262 1980 1760 1638 1602 1610 1615 2230 2486 2820 3022 3148 3212 3306 3336 3461 3556 3522 3555 3630 3735 3598 3419 3509 3647 3800 3613 3029 2528 2360 2288 2263 2273 2242 2223 2213 2194 2347 2557 2687 2883 3030 3173 3210 2757 2786 2781 2342 2037 1529 1736 2033 1927 1727 1600 1550 1529 1572 1644 1552 1331 1287 1424 1513 1569 1589 1565 1484 1414 1376 1468 1471 1369 1107
2439 2462 2338 2312 2368 2444 2457 2359 2444 2510 2346 2140 2025 1825 1698 1648 1631 1668 1967 2453 2684 2988 3122 3256 3347 3298 3329 3502 3591 3526 3604 3837 3880 3765 3720 3749 3846 3642 3486 3454 3487 3208 3143 2722 2409 2288 2299 2272 2376 2476 2568 2656 2684 2760 2793 2805 2796 2743 2080 1821 2017 1924 1791 1786 1782 1810 1832 1663 1514 1444 1466 1470 1402 1331 1340 1132 1075 1060 1019 1043 1164 1268 1387 1428 1378
2391 2371 2476 2369 2422 2493 2502 2419 2306 2296 2257 1769 1732 1709 1679 1657 1653 1662 1692 2430 2688 2796 3010 3216 3288 3376 3420 3451 3601 3645 3679 3727 3559 3136 3005 3438 3557 3535 3439 3388 3365 3214 3086 2936 2783 2684 2544 2523 2638 2717 2784 2816 2860 2869 2863 2888 2938 2631 2314 2275 1883 1581 1509 2002 1899 1686 1667 1626 1493 1556 1563 1688 1561 1157 945 903 1022 1100 984 941 975 1055 1176 1228 1191
2474 2493 2533 2501 2544 2583 2562 2488 2446 2397 2379 2032 1617 1482 1433 1462 1513 1548 1753 2284 2647 2834 2932 3093 3260 3338 3424 3556 3585 3542 3556 3757 3561 3128 2804 2571 3150 3280 3340 3362 3403 3401 2912 2923 2767 2719 2712 2782 2845 2865 2930 2985 2979 2970 2943 2970 2987 2948 2428 2313 2173 1660 1543 1794 1806 1763 2030 2086 1890 1892 1897 1730 1577 1422 1394 1367 1327 1372 1259 1214 1225 1255 1332 1370 1328
2491 2583 2602 2603 2613 2608 2532 2536 2479 2566 2478 2346 1877 1727 1627 1527 1386 1491 2051 2343 2634 2836 2952 3141 3239 3356 3434 3018 3236 3497 3595 3650 3349 3039 2760 2551 2742 3175 3313 3245 3283 2955 3138 3015 2902 3509 2941 2931 2973 3010 3035 3073 3080 3126 3101 3090 3079 3012 2294 2062 2010 1885 1821 2020 2668 2508 2157 1835 1649 1609 1607 1639 1555 1419 1145 1139 1186 1316 1149 1070 1034 1188 1194 1292 1358
2639 2758 2624 2648 2689 2712 2618 2526 2279 2307 2528 2391 2151 2104 2034 1938 1771 1759 2177 2345 2558 2756 2807 2987 3198 3266 3368 3088 2567 2721 3010 3283 3097 2898 2688 2498 2821 3175 3308 3392 3138 3166 3012 3241 3416 3392 3302 3541 3174 3285 3195 3178 3214 3208 3182 3107 3044 2961 2361 2315 2045 2108 2571 2138 1752 1472 1353 1168 974 1051 892 1047 1140 1328 1329 1180 1183 1385 1329 1297 994 957 984 970 977
Wind_Speed
14 14 14 14 15 15 16 16 16 16 16 15 15 14 13 12 12 12 12 11 11 9 10 11 13 12 13 12 13 13 13 13 12 12 12 12 13 11 12 13 12 14 15 16 17 15 15 13 12 12 12 11 11 11 11 11 11 12 12 12 12 12 12 12 12 12 12 13 13 13 13 13 12 12 12 12 12 11 11 11 10 10 9 9 8
14 14 15 14 14 15 15 16 15 15 15 14 13 13 11 11 11 11 11 10 10 9 10 11 12 11 12 13 14 14 13 13 12 12 12 13 13 12 13 14 14 15 17 17 17 17 17 14 14 14 14 14 13 12 11 11 11 12 12 13 13 13 13 13 13 14 14 14 14 13 14 14 14 14 13 13 13 12 12 12 11 10 10 9 9
14 14 15 14 14 14 15 15 15 14 13 13 11 10 10 9 10 10 9 9 9 9 11 12 12 12 12 14 14 14 13 13 13 13 13 13 13 13 12 12 16 18 17 17 18 15 15 14 15 15 15 15 14 13 13 13 12 13 14 14 15 15 15 15 15 15 15 16 15 15 15 15 15 14 14 14 14 13 12 12 11 10 9 10 9
14 13 14 13 13 13 13 14 13 13 12 11 10 9 8 8 8 8 8 8 9 10 10 12 12 12 12 13 13 13 13 13 14 14 13 13 14 14 14 13 18 15 17 17 17 13 17 15 15 15 14 15 15 12 10 12 13 14 15 16 15 16 17 17 16 16 16 17 17 16 18 18 17 17 16 15 14 13 13 12 12 11 11 10 9
12 13 12 12 12 12 12 11 12 11 10 9 9 8 8 8 7 8 7 8 9 9 11 12 11 11 13 11 12 12 12 13 14 15 15 14 15 15 15 14 14 16 18 16 17 16 14 14 17 12 14 14 8 11 12 12 13 14 14 15 16 18 17 15 15 16 17 18 19 18 18 18 18 17 16 15 14 13 13 12 11 11 10 9 7
12 11 12 11 11 11 11 10 9 9 9 8 8 8 8 8 8 9 7 8 8 8 10 11 11 12 12 11 12 11 12 13 14 14 16 16 14 15 15 16 15 15 14 17 16 14 14 15 18 12 15 12 13 14 13 14 14 15 16 17 17 17 16 17 18 18 19 20 19 18 19 18 17 16 16 15 14 13 12 11 10 9 8 6 6
12 11 11 11 11 11 11 10 8 8 8 6 7 7 8 9 10 10 10 8 8 7 9 10 11 12 11 11 11 11 11 12 13 15 16 16 16 15 15 16 16 16 15 16 16 18 16 17 18 17 11 15 12 15 17 16 16 17 18 19 19 19 18 19 19 19 19 19 17 17 16 16 15 15 15 15 13 12 10 10 9 8 6 5 5
13 11 12 12 12 12 11 9 8 8 7 6 6 7 8 11 10 12 10 9 7 7 8 9 10 11 10 10 10 10 10 11 13 16 16 17 17 16 16 16 16 16 16 16 16 15 17 19 20 20 16 16 15 18 18 16 17 18 19 19 19 19 18 18 18 18 18 17 17 17 17 16 15 14 14 13 12 11 10 9 8 7 6 6 6
13 12 13 13 13 12 11 10 9 9 9 8 9 9 11 11 11 11 10 9 8 7 7 8 8 9 8 9 8 9 9 11 14 15 16 17 17 16 16 15 16 16 17 17 16 16 15 16 18 19 18 19 17 18 19 19 19 20 20 19 19 18 17 16 16 16 16 17 17 17 16 15 14 13 12 12 11 10 9 8 7 7 7 7 7
14 13 14 15 14 14 12 10 11 11 11 11 10 10 10 11 10 9 9 8 8 8 8 8 8 8 9 9 8 8 9 12 13 15 16 16 16 16 15 14 15 15 15 14 15 14 15 14 15 18 18 17 17 18 19 19 19 19 19 18 18 18 17 16 16 16 17 16 16 16 16 15 15 13 12 10 9 9 8 8 7 7 7 8 8
15 15 15 15 15 15 14 12 13 12 13 12 10 9 9 9 9 7 6 7 9 10 11 11 9 9 9 10 8 8 10 11 13 14 14 14 15 15 15 14 14 14 14 14 13 13 13 13 13 13 12 10 14 15 17 17 17 17 16 16 16 15 15 15 16 16 16 17 17 16 16 15 14 10 9 9 9 8 7 6 6 7 8 8 9
15 15 16 16 16 15 14 12 12 12 12 12 9 8 7 7 7 7 6 8 9 11 13 13 10 10 10 10 9 9 9 10 11 11 12 12 13 14 14 13 13 13 13 13 12 12 11 10 10 11 11 9 10 11 13 14 14 14 14 14 13 13 13 14 15 15 16 16 16 16 16 15 11 9 8 8 7 6 6 5 6 7 8 9 10
14 15 15 14 15 14 13 11 11 11 11 11 9 7 5 6 6 6 7 9 8 10 14 16 13 10 10 10 9 10 9 9 9 8 9 10 10 12 13 13 12 12 12 12 12 12 11 10 9 9 9 9 10 10 10 10 10 10 11 11 11 11 13 13 13 13 14 15 14 15 16 16 11 7 7 6 5 6 5 6 7 8 9 11 13
12 13 13 13 13 13 12 11 10 9 9 9 8 7 6 6 5 5 6 8 7 11 13 15 13 13 11 10 8 8 9 9 8 7 8 9 9 10 11 12 11 9 9 10 11 11 11 10 10 8 8 9 9 9 9 11 11 8 8 10 10 11 12 13 13 13 13 13 11 9 12 16 10 7 6 5 5 6 7 8 10 11 13 15 17
11 11 11 11 12 12 12 11 9 8 7 8 8 9 8 7 5 6 6 7 8 8 12 13 13 11 10 10 8 9 6 8 8 8 9 9 9 10 10 10 10 9 8 9 10 10 9 9 9 9 8 8 8 8 9 9 9 8 11 12 11 10 10 11 12 12 12 11 11 11 12 12 8 6 6 6 7 8 9 11 13 15 18 19 20
11 10 10 10 11 12 12 11 9 7 7 7 8 9 8 6 6 5 7 10 9 8 9 11 12 9 10 10 8 9 nan 7 9 8 9 10 10 10 8 9 9 8 8 9 8 9 9 9 9 9 9 9 8 8 9 9 9 12 13 13 14 12 11 10 11 12 11 11 11 13 13 11 8 6 6 7 8 10 12 14 16 18 20 21 21
10 11 10 10 10 11 11 11 9 7 7 7 7 9 8 8 7 6 8 10 10 10 9 10 10 10 9 8 7 8 nan 6 nan 9 9 10 11 10 8 10 10 8 8 8 7 8 10 9 9 9 9 9 9 9 9 10 11 10 11 12 9 13 13 12 12 12 12 12 12 13 13 12 9 7 8 9 11 13 16 17 18 19 19 20 21
10 11 11 10 9 10 10 10 10 8 7 8 7 7 8 9 7 8 9 9 11 11 10 9 10 9 9 9 10 10 8 8 nan 7 7 nan 9 9 8 9 9 8 7 8 9 9 9 9 9 10 10 10 9 10 11 11 12 11 11 10 10 10 12 13 13 13 13 13 13 14 14 13 11 10 9 10 14 16 17 17 17 18 nan 21 22
10 10 10 10 9 9 10 10 10 9 8 7 8 9 9 8 8 8 9 8 9 11 11 9 8 9 9 9 8 9 9 9 8 8 9 5 7 nan 7 7 8 9 9 10 10 10 9 10 10 10 10 10 10 11 12 12 13 14 13 13 13 13 13 14 14 15 15 15 15 15 15 14 14 12 11 12 14 16 16 16 nan 19 21 23 24
10 9 10 10 9 9 10 11 10 10 8 8 9 9 8 7 8 8 8 8 8 10 12 11 11 9 9 9 8 7 7 9 8 9 8 9 7 5 nan nan 6 8 10 10 11 11 10 10 11 11 10 11 11 11 12 13 12 13 13 15 16 15 15 16 17 17 17 17 16 16 16 16 16 15 13 13 13 13 15 16 19 21 23 24 25
11 10 9 10 9 9 10 10 10 10 9 9 9 9 10 9 8 8 7 7 8 9 10 11 12 11 8 8 7 7 5 5 4 5 7 8 8 7 6 3 6 8 9 10 11 11 11 12 11 12 11 11 12 12 13 13 12 12 13 14 16 16 17 17 18 19 19 19 18 17 18 17 17 17 15 15 14 15 16 18 20 23 24 25 25
11 11 10 10 10 9 9 10 10 10 9 11 10 9 9 10 11 10 8 8 7 8 10 10 11 11 10 9 7 5 5 5 6 5 5 5 8 10 nan nan 11 6 6 9 10 11 11 11 11 13 13 12 12 13 13 13 13 14 13 14 17 17 18 17 19 20 20 20 19 19 19 19 18 17 17 16 17 17 18 19 21 23 25 25 25
10 10 10 10 10 9 9 9 10 9 9 10 10 10 10 10 10 10 10 9 9 9 9 10 10 10 11 10 11 10 8 8 7 6 7 7 8 10 nan nan 12 14 8 7 8 10 10 11 13 13 13 13 13 13 13 14 15 16 15 15 18 18 18 19 19 20 20 19 19 19 18 18 18 17 17 17 18 19 20 21 23 24 25 25 25
10 10 10 10 9 9 9 9 9 10 10 10 11 10 11 10 10 10 11 11 10 9 10 10 12 12 13 12 13 13 11 11 10 8 8 10 11 12 13 11 11 10 8 9 10 11 11 12 13 14 13 14 14 13 13 14 15 16 17 19 19 19 20 20 20 20 19 18 17 18 18 18 18 18 18 19 19 20 21 23 24 24 25 25 25
9 10 10 9 9 9 10 11 12 12 13 12 12 11 12 12 11 12 12 13 12 11 10 11 12 13 13 12 13 13 12 11 11 12 10 9 11 12 13 12 13 13 9 9 9 8 10 12 12 12 13 13 13 13 14 15 15 16 19 16 18 19 20 20 19 20 20 20 20 20 19 18 16 16 17 18 18 20 22 23 24 25 25 25 26
8 9 10 10 10 11 12 14 14 14 14 14 14 13 13 14 13 14 14 13 13 13 13 13 13 13 13 13 12 11 11 10 10 10 12 11 11 12 12 11 12 13 9 7 7 9 9 9 11 11 12 13 13 13 14 15 15 15 17 16 16 20 20 20 20 20 21 22 22 22 21 21 21 20 19 19 19 21 23 25 26 26 25 26 27
8 9 9 10 11 12 13 15 15 15 15 14 14 13 13 13 14 14 14 13 13 13 13 14 13 13 12 11 11 10 9 8 9 10 11 12 12 11 10 12 13 12 11 8 8 11 13 10 10 11 11 11 11 12 12 12 14 13 16 14 14 18 20 20 20 21 21 22 22 22 22 22 22 22 22 22 22 23 24 25 26 27 28 28 27
9 9 9 9 11 12 12 14 14 14 13 13 13 12 11 12 12 13 14 11 11 13 13 13 14 14 13 11 9 10 8 8 7 8 9 11 11 10 9 10 11 13 12 12 10 11 10 10 9 10 10 10 9 10 10 12 12 13 15 13 13 14 20 21 20 21 21 21 22 22 22 23 24 24 25 25 26 26 26 27 27 28 29 29 29
10 10 9 9 10 10 11 11 11 11 11 10 10 9 8 9 10 11 11 10 9 10 11 12 13 13 12 12 11 10 10 7 7 7 7 7 8 9 10 10 10 12 13 13 12 11 8 8 9 4 7 7 7 7 8 10 11 12 12 13 13 13 16 21 21 21 21 21 22 23 23 24 25 27 28 28 28 29 29 29 29 29 30 30 30
10 10 9 8 9 8 9 9 9 8 8 8 7 6 5 6 6 7 7 6 6 6 7 9 10 11 11 11 10 10 9 8 8 7 5 5 6 7 8 8 8 10 11 13 15 12 12 9 8 6 3 5 5 6 7 8 9 11 11 12 12 13 16 19 20 21 22 23 24 24 25 26 27 28 29 29 30 30 30 30 31 31 31 31 31
10 10 9 9 9 8 8 8 7 6 6 5 4 3 3 3 3 3 3 3 3 4 4 5 7 7 8 10 9 9 8 7 7 6 4 3 4 5 6 6 6 7 10 10 13 10 6 8 7 6 4 4 4 5 6 8 9 12 12 12 13 15 14 15 19 21 22 24 25 26 27 27 27 28 28 28 29 30 31 31 32 32 33 33 33
10 9 9 8 8 7 7 7 7 6 5 4 2 1 1 1 1 1 0 1 1 1 3 2 3 4 6 7 8 7 5 5 6 5 4 2 3 4 5 5 5 5 6 8 10 14 8 8 8 6 7 5 6 7 8 8 10 15 12 13 13 13 14 16 21 24 25 nan nan nan nan nan nan nan nan nan 30 31 32 33 33 34 34 34 35
10 9 7 7 7 7 7 7 6 5 4 3 3 3 2 1 1 1 2 2 1 1 1 1 1 2 3 5 6 5 3 4 5 5 4 3 2 3 3 4 4 3 4 6 9 12 11 6 6 7 4 3 5 8 9 9 10 12 15 15 15 15 15 16 16 23 26 nan nan nan nan nan nan nan nan nan nan nan nan 33 34 34 34 35 nan
11 9 7 7 7 7 7 6 5 4 4 3 3 4 3 2 2 4 3 4 2 1 2 1 0 1 1 2 3 3 1 3 4 4 4 4 3 4 4 4 4 4 4 6 8 9 13 6 6 5 6 6 6 8 9 9 9 11 15 16 15 16 16 15 16 17 26 27 nan nan nan nan nan nan nan nan nan nan nan nan nan nan nan 34 nan
11 10 8 7 8 8 7 7 6 5 5 4 4 4 4 3 3 3 5 5 4 3 3 1 0 2 2 2 2 2 2 0 1 2 3 3 3 4 6 5 6 6 6 7 8 10 11 11 6 8 7 8 9 8 9 10 10 11 12 14 16 16 17 18 17 18 24 28 28 28 nan nan nan nan nan nan nan nan nan nan nan nan nan nan nan
12 11 9 7 8 9 8 8 7 7 6 6 5 5 3 3 4 5 6 6 5 4 3 1 1 3 3 3 2 2 3 2 2 1 0 2 2 4 6 6 6 7 7 7 9 10 9 11 9 8 7 8 8 9 10 12 12 13 14 14 16 17 18 19 20 20 21 26 28 29 30 32 nan nan nan nan nan nan nan nan nan nan nan nan nan
12 12 10 9 9 10 10 8 8 7 6 6 6 5 4 4 4 5 6 7 7 5 3 3 3 4 4 3 2 3 4 3 2 1 1 2 3 4 6 7 7 6 6 7 8 8 9 10 10 8 8 8 8 9 11 11 11 14 16 18 18 18 19 20 19 20 22 25 27 29 31 33 34 nan nan nan nan nan nan nan nan nan nan nan nan
12 11 10 11 11 11 10 9 8 7 7 7 7 6 5 5 6 6 7 8 8 7 5 4 4 5 5 3 3 4 5 3 2 2 2 3 3 5 7 8 7 6 7 7 7 7 8 9 8 7 8 10 9 11 14 16 14 12 14 16 19 21 21 20 21 21 21 23 25 29 32 nan nan nan nan nan nan nan nan nan nan nan nan nan nan
12 11 10 10 12 12 11 10 8 8 8 7 8 8 7 6 7 8 8 9 9 9 7 5 5 6 5 4 4 4 5 3 1 3 3 4 4 7 7 8 7 6 6 7 6 7 8 8 7 8 8 9 12 11 15 19 18 17 15 15 16 19 22 23 21 22 22 23 26 32 30 28 30 33 38 nan nan nan nan nan nan nan nan nan nan
12 11 11 11 13 13 11 10 9 9 8 8 9 9 9 9 9 9 10 10 9 9 8 6 5 6 5 4 4 5 5 4 1 3 4 5 6 7 8 6 5 4 6 5 5 6 7 7 8 7 8 8 11 13 16 20 19 19 22 20 17 18 19 21 23 23 23 23 23 25 32 32 29 30 31 35 nan nan nan nan nan nan nan nan nan
15 13 13 13 13 13 11 10 9 9 7 7 9 10 11 10 11 11 11 11 10 8 7 6 6 6 6 5 4 4 4 3 1 2 5 5 7 9 8 5 4 4 4 4 5 6 6 8 8 9 10 11 13 15 17 20 21 20 20 22 20 19 19 18 19 22 23 22 21 21 23 25 27 33 39 41 42 46 nan nan nan nan nan nan nan
16 17 15 14 13 12 11 10 9 9 8 9 11 13 13 12 12 13 13 12 11 8 7 6 5 5 6 5 5 2 2 2 1 2 5 6 6 8 8 5 6 5 5 5 6 6 7 9 9 11 11 12 14 17 17 18 19 21 22 24 22 21 22 19 17 18 23 28 28 28 32 38 42 45 47 45 45 48 43 42 nan nan nan nan nan
16 17 16 14 13 13 11 10 9 8 9 10 13 15 14 14 13 13 13 12 11 9 6 4 5 6 7 6 5 3 3 2 2 4 6 6 6 8 10 10 7 6 6 6 7 7 8 8 9 10 11 11 14 17 18 17 20 23 25 26 26 27 28 25 17 17 32 41 45 41 40 48 50 49 48 47 46 45 44 42 43 47 nan nan nan
18 17 15 14 14 13 12 10 8 8 9 10 15 15 15 16 15 12 11 11 10 9 6 3 4 7 7 7 6 6 5 4 6 4 3 5 6 8 10 11 12 12 12 11 9 9 11 10 10 11 11 12 13 17 20 21 23 26 29 31 32 38 35 31 31 27 34 50 48 42 39 47 53 50 47 46 43 39 39 41 44 49 52 50 nan
18 16 14 14 13 12 11 10 8 9 9 13 16 15 16 17 17 14 10 9 8 7 5 3 3 5 7 7 7 7 8 4 4 6 6 3 5 10 11 11 10 12 14 16 17 15 13 14 14 14 14 15 17 18 24 25 26 28 32 38 43 43 43 43 43 37 34 48 49 43 38 43 52 47 44 45 44 42 41 45 48 49 49 48 50
16 15 13 12 12 11 10 10 10 9 9 14 17 16 16 17 17 15 10 8 6 4 2 2 4 4 5 7 8 9 9 7 5 4 3 1 1 4 5 7 8 12 17 20 21 22 22 19 18 18 17 18 20 21 24 30 31 34 41 48 46 46 41 40 44 43 39 46 50 42 34 37 49 43 40 40 46 46 45 44 45 46 45 47 49
14 14 12 11 11 10 10 10 10 9 9 13 17 16 16 17 17 16 11 8 5 3 1 2 3 4 6 7 8 9 9 8 7 6 4 3 3 2 1 3 6 8 11 16 19 21 22 23 22 22 20 20 22 24 28 31 34 39 49 49 45 49 43 37 40 40 36 44 51 48 38 33 48 45 39 38 41 40 39 42 43 41 44 47 48
14 13 12 11 10 10 10 9 9 8 9 14 17 17 17 17 19 15 11 8 5 2 1 2 3 6 6 7 9 9 8 7 5 7 7 6 4 3 4 5 5 7 9 11 17 19 19 20 23 24 23 24 26 28 30 31 35 47 55 48 52 56 47 40 40 38 38 45 56 52 43 35 41 44 34 34 36 32 31 33 38 42 42 45 47
13 12 11 11 12 11 10 9 8 9 10 15 17 17 18 19 20 14 12 9 6 3 2 2 4 5 7 7 7 9 7 6 6 10 11 12 8 7 6 7 8 9 8 10 18 25 27 28 27 27 27 28 30 31 33 36 41 42 51 50 52 54 50 41 36 39 42 49 55 55 47 37 38 41 37 33 30 27 26 28 30 38 43 44 47
12 12 13 14 13 12 10 9 9 9 10 16 20 19 20 23 20 16 14 11 7 6 4 4 5 7 7 5 6 7 6 6 6 11 13 17 12 11 10 9 9 9 10 11 13 20 31 31 30 30 31 31 30 30 32 37 41 49 58 56 56 54 50 48 44 41 39 44 53 58 47 40 35 36 37 33 27 26 27 28 32 34 42 46 48
15 16 16 15 14 14 12 10 12 10 11 15 22 20 21 23 20 15 14 12 9 7 7 6 7 8 9 9 5 4 5 6 6 11 15 20 15 15 15 12 11 11 12 13 14 12 13 17 23 28 31 34 34 35 36 39 45 53 62 58 55 55 54 51 49 45 39 38 48 59 46 36 33 34 35 31 25 25 26 30 35 38 38 40 46
Wind_Direction
100 100 102 102 102 102 104 107 109 109 108 108 109 108 106 106 105 103 99 99 96 94 91 88 86 81 82 75 67 63 64 64 62 57 55 53 53 44 44 60 60 63 70 71 73 66 62 61 60 58 57 59 61 62 61 60 58 56 57 55 53 51 53 54 54 53 53 55 56 57 51 59 62 63 65 65 68 67 66 63 67 77 81 87 90
105 107 105 105 105 104 105 106 107 109 109 110 109 107 107 107 107 104 102 99 99 99 99 97 92 93 88 84 73 67 61 61 58 56 52 52 54 50 39 58 57 62 63 63 72 69 67 63 61 58 57 55 56 60 59 61 58 61 60 58 55 52 53 52 52 54 57 55 56 57 59 60 61 63 64 64 64 66 67 65 63 71 75 78 80
109 109 109 109 108 107 108 109 108 110 113 112 110 108 106 104 103 99 94 95 97 96 94 94 95 95 94 88 78 70 62 57 55 54 51 52 55 56 47 45 63 57 60 63 64 69 74 69 66 68 60 54 54 55 59 58 59 58 58 56 53 52 50 49 53 58 57 59 57 60 63 61 63 62 59 58 59 59 61 62 61 65 73 71 70
111 111 111 110 109 108 110 109 113 114 115 116 112 108 101 96 92 89 88 90 91 90 91 91 95 100 94 88 82 73 60 52 55 55 58 54 57 59 59 54 53 58 69 63 62 54 69 70 66 73 74 63 54 57 74 76 68 63 60 56 56 55 55 56 58 65 67 64 63 59 56 54 55 54 53 53 53 51 51 52 55 53 54 54 59
111 111 113 113 113 112 112 112 114 114 115 118 114 104 95 88 86 87 84 85 89 92 90 86 91 100 101 94 86 74 62 53 55 58 61 57 58 62 63 62 62 48 52 65 66 57 61 74 80 72 81 92 91 82 66 72 76 78 74 69 65 63 64 64 66 64 70 69 65 57 53 52 49 48 48 49 46 47 46 47 50 51 47 47 46
112 113 115 118 117 118 121 121 119 117 116 112 104 99 96 95 97 95 97 94 92 89 88 88 91 96 100 96 87 78 65 57 57 62 66 68 67 67 66 66 66 65 60 46 62 68 76 83 79 64 75 77 85 77 75 66 68 73 75 74 76 76 77 69 64 58 61 63 57 54 52 51 49 47 46 43 44 45 45 47 43 44 35 35 38
110 113 113 118 119 121 123 125 125 117 113 112 105 97 93 95 102 106 104 98 97 95 95 93 98 102 103 98 93 81 70 64 65 67 70 72 71 69 70 72 72 71 67 67 51 56 64 75 84 84 84 84 73 84 76 65 64 67 70 72 74 76 70 68 63 57 56 57 54 52 51 49 47 46 43 44 42 44 44 42 40 35 31 24 26
108 109 112 113 117 119 122 127 122 117 117 116 103 97 97 100 105 105 104 105 103 94 94 96 100 109 112 104 96 87 75 75 76 76 75 73 71 67 67 68 71 74 77 71 68 61 57 63 74 78 76 77 72 68 72 70 68 68 71 70 70 69 67 63 59 55 52 51 51 51 49 48 44 42 45 46 44 40 43 36 31 29 22 13 3
104 104 109 110 113 116 116 116 116 118 118 114 106 104 102 103 106 108 107 107 112 110 102 102 106 114 123 122 110 95 89 87 87 84 79 76 73 68 65 63 65 67 70 72 72 72 46 59 73 78 72 73 72 74 73 72 70 69 70 70 67 64 60 58 58 54 48 50 50 49 46 40 35 34 41 42 45 41 32 29 24 26 12 358 344
102 103 107 111 114 114 113 111 110 111 109 106 105 103 101 105 106 104 105 105 102 109 108 107 118 122 134 137 125 110 101 95 90 86 81 77 74 74 71 69 65 67 71 75 77 74 79 59 57 69 70 72 70 74 73 72 72 73 70 68 66 64 58 53 50 46 44 43 42 42 40 35 31 34 41 40 30 22 21 22 29 21 10 347 344
102 103 106 110 110 108 108 108 107 108 106 102 97 96 98 98 103 100 103 103 103 105 107 108 111 123 133 139 131 121 110 103 93 88 84 81 80 75 70 66 67 65 69 71 70 73 76 87 88 84 73 49 73 70 70 70 73 70 70 68 65 61 59 53 47 43 37 36 35 35 32 28 30 30 26 20 19 23 21 25 30 19 351 349 344
105 105 107 109 109 106 104 104 104 104 102 97 95 90 87 91 93 92 68 82 91 102 102 96 110 129 133 131 129 122 116 109 97 89 83 79 78 80 76 65 63 65 66 69 72 77 77 82 83 83 84 54 52 76 76 73 69 68 67 66 63 57 54 49 44 40 35 34 30 26 19 19 23 26 20 19 27 22 23 27 18 354 347 346 342
108 107 106 109 109 107 103 104 103 101 98 95 95 100 98 96 96 83 70 60 77 98 101 94 104 113 124 125 126 127 122 113 106 92 81 77 75 78 79 75 66 63 66 68 71 72 74 71 71 76 76 82 65 42 57 69 67 67 63 63 62 55 49 47 44 36 30 29 25 18 16 5 12 24 13 22 29 10 18 7 357 347 345 340 338
111 108 109 107 107 107 105 105 103 100 96 97 98 100 100 100 95 84 78 93 78 64 77 96 98 108 108 114 123 122 126 116 102 84 74 70 72 74 79 83 79 73 68 67 66 66 66 66 68 67 68 69 72 71 59 47 40 18 57 55 55 53 44 40 34 30 26 26 22 14 354 356 4 14 12 7 359 358 357 356 352 346 340 339 339
109 108 112 108 107 107 108 108 103 99 91 88 95 98 101 100 92 97 97 90 98 98 93 100 103 110 121 109 112 100 106 106 97 84 70 67 69 72 75 82 83 76 72 72 69 66 63 64 65 65 61 57 61 60 56 55 56 44 39 39 46 47 54 41 28 25 21 20 15 359 354 2 7 7 6 360 352 351 350 352 349 344 342 343 345
106 105 111 111 106 105 107 107 103 97 93 93 96 96 95 94 93 97 102 106 102 107 100 96 105 98 101 115 118 113 nan 84 92 85 80 77 73 73 64 75 77 72 72 74 71 67 60 58 56 59 56 51 52 52 53 53 43 45 50 47 23 25 32 39 28 20 18 21 14 357 359 10 9 6 4 356 352 347 350 348 347 348 349 352 354
104 99 104 106 107 106 105 106 104 99 101 103 102 95 90 96 101 109 104 111 117 120 114 104 103 120 116 103 101 93 nan 115 nan 99 90 85 78 77 74 77 78 71 76 79 71 65 64 53 50 48 47 46 42 44 52 52 50 47 43 43 32 15 19 24 30 24 22 17 13 359 3 7 10 353 348 348 346 350 349 349 350 355 1 2 2
100 96 95 102 103 103 102 103 101 99 102 109 111 101 89 92 100 111 114 110 121 125 122 115 109 109 117 126 131 133 124 124 nan 108 108 nan 96 89 83 80 79 72 69 69 63 63 56 58 42 45 42 41 39 43 49 53 53 50 43 32 23 24 19 15 24 31 25 21 14 9 8 9 6 357 345 346 347 349 351 353 359 4 nan 8 5
93 92 94 96 101 104 102 100 101 101 103 111 107 94 91 93 105 109 116 124 117 121 121 118 111 101 93 101 109 117 125 120 126 120 112 102 98 nan 82 77 82 79 73 71 67 62 60 59 54 51 43 43 42 46 51 52 49 48 40 33 25 22 23 23 30 36 37 31 23 17 14 8 6 2 357 354 354 352 357 3 nan 9 7 7 5
97 95 96 98 102 105 105 104 104 104 107 107 106 101 100 101 104 110 117 118 115 117 121 120 108 103 96 95 96 115 123 116 110 117 119 120 116 95 nan nan 87 86 85 78 72 68 61 56 57 52 51 47 48 52 56 55 53 45 37 18 26 33 34 34 39 41 43 41 34 25 21 16 12 12 9 8 6 7 7 11 10 8 5 4 2
101 102 101 102 104 107 107 108 109 109 110 108 104 99 91 93 94 100 105 110 112 115 117 118 115 111 107 100 106 103 103 111 106 93 109 120 117 118 119 94 90 87 85 84 79 72 63 62 59 62 59 57 55 55 57 57 54 52 50 26 37 42 44 39 37 42 44 44 43 36 30 27 24 21 21 21 21 18 15 10 7 6 6 3 2
107 109 111 106 107 109 110 107 108 109 108 102 98 94 91 87 89 93 100 106 111 109 107 114 116 118 111 111 100 98 97 95 93 98 108 105 114 127 nan nan 123 115 92 89 85 78 73 68 62 64 64 65 60 57 59 59 60 61 57 42 47 47 48 45 40 46 48 48 48 47 41 37 35 32 29 27 23 18 13 10 10 9 8 6 3
116 120 114 113 112 113 112 110 109 107 104 100 97 95 92 87 88 89 92 95 103 102 105 107 111 110 106 105 100 93 94 100 111 119 122 120 118 122 nan nan 134 129 120 123 107 89 77 72 71 70 67 66 65 63 62 63 60 63 60 52 53 52 51 50 49 50 52 50 52 52 50 45 40 36 31 26 21 18 15 14 13 12 10 8 7
133 134 130 118 123 120 111 109 108 104 102 105 106 104 101 99 96 94 94 92 95 101 105 107 103 105 102 102 100 99 99 100 104 101 101 111 116 117 122 127 119 110 115 107 91 88 82 75 72 71 66 68 65 64 63 62 63 54 57 53 51 51 50 50 49 47 45 46 44 47 49 47 42 35 31 27 23 21 19 18 17 15 12 10 9
143 133 127 118 124 118 109 107 108 106 107 108 108 104 105 103 99 93 93 92 92 91 95 98 102 104 104 101 102 101 98 98 98 99 103 104 102 110 117 128 121 122 121 126 115 98 86 80 76 72 70 66 64 58 58 59 62 44 43 57 42 44 44 43 42 40 39 37 37 36 37 39 37 31 25 22 20 20 21 22 20 18 15 13 11
130 127 128 122 120 115 111 107 107 106 103 102 104 103 100 101 98 95 91 92 92 89 93 97 102 102 104 105 101 99 99 95 93 92 94 94 98 106 119 120 119 123 123 115 104 106 87 77 79 76 71 67 63 57 53 57 58 34 31 47 32 32 37 37 36 35 34 33 32 32 31 30 29 29 26 22 19 20 20 21 22 20 17 14 12
134 136 141 134 124 121 113 109 107 105 103 102 103 101 99 100 100 97 97 94 89 90 91 92 96 98 100 102 107 104 99 97 98 96 101 103 106 112 116 120 122 122 121 110 101 84 97 93 77 70 63 61 57 54 51 50 52 28 18 31 41 26 27 30 33 31 31 31 31 30 29 28 27 27 27 26 23 22 21 19 18 16 15 13 13
144 149 148 140 129 122 118 111 110 108 105 102 101 102 97 95 97 96 93 95 90 86 90 91 92 94 98 101 102 99 93 92 93 100 102 108 114 116 111 111 117 122 125 121 111 104 86 88 78 69 65 60 56 53 51 53 51 23 16 33 30 27 20 25 27 28 28 28 29 29 28 27 26 26 25 25 25 22 19 16 14 12 12 11 11
154 159 157 150 140 132 128 122 118 116 112 108 104 101 99 95 93 89 89 90 87 87 90 92 96 98 99 94 94 95 92 85 89 98 111 122 123 122 117 114 118 117 122 120 113 112 98 84 102 62 57 57 56 52 45 42 44 33 30 26 27 27 14 14 20 23 24 25 26 26 26 25 24 24 24 22 20 19 17 14 12 11 12 13 13
164 172 169 156 151 144 144 141 136 128 119 118 112 105 98 101 90 87 87 88 86 93 91 93 96 99 101 100 96 94 87 80 86 94 112 126 131 126 121 117 115 113 117 117 115 109 105 92 85 82 35 51 43 42 44 42 31 24 30 25 24 23 20 9 14 19 22 23 24 24 24 24 23 22 20 18 17 15 14 13 13 13 13 13 12
181 184 181 163 161 159 154 150 153 143 139 133 136 130 102 106 93 90 69 67 88 97 99 96 99 101 99 99 97 94 91 92 97 96 98 114 125 126 124 121 113 104 110 112 114 113 97 105 100 87 83 36 45 47 31 29 19 18 22 20 17 24 17 11 14 20 24 25 24 23 23 23 22 19 16 15 13 11 11 11 11 11 11 12 10
187 191 183 168 163 158 156 149 145 148 149 150 157 166 160 119 115 118 304 21 347 95 114 111 119 106 100 99 95 93 90 98 95 90 87 92 115 120 122 123 114 103 106 104 98 102 98 101 102 96 78 62 11 21 30 21 7 2 15 12 15 11 9 16 16 19 24 nan nan nan nan nan nan nan nan nan 12 9 8 7 8 9 9 8 7
201 200 194 178 172 167 153 155 145 157 169 177 205 229 249 257 260 251 260 280 293 261 225 129 116 113 104 105 99 88 82 90 88 85 85 71 73 104 117 121 112 95 80 83 88 99 102 80 84 94 86 54 53 6 17 18 9 360 4 10 14 12 10 10 11 10 17 nan nan nan nan nan nan nan nan nan nan nan nan 4 5 5 4 4 nan
213 208 204 191 185 177 166 162 167 170 192 213 222 241 256 274 290 259 266 285 282 245 242 213 173 207 211 145 112 98 51 72 79 70 71 69 67 87 86 90 96 85 46 71 79 86 100 87 73 52 60 21 50 18 18 27 29 1 359 359 4 9 9 10 9 7 7 14 nan nan nan nan nan nan nan nan nan nan nan nan nan nan nan 1 nan
219 215 211 199 196 193 182 181 189 196 210 223 235 246 255 279 287 280 273 281 286 271 267 261 189 221 235 222 146 171 235 133 80 78 66 55 74 86 87 83 79 79 59 52 75 82 89 95 79 74 56 27 30 40 25 22 20 16 12 4 4 2 2 8 11 10 5 8 11 10 nan nan nan nan nan nan nan nan nan nan nan nan nan nan nan
223 225 220 210 204 203 196 198 205 212 225 235 247 261 276 280 283 291 288 285 277 263 254 240 219 238 240 234 187 193 234 221 194 188 69 51 76 92 93 89 80 79 75 56 54 70 77 84 81 72 63 44 33 18 18 21 22 10 4 5 4 8 6 5 9 11 5 2 3 4 5 7 nan nan nan nan nan nan nan nan nan nan nan nan nan
219 226 226 218 209 208 204 207 213 222 234 252 265 277 278 280 290 291 293 290 285 272 253 227 221 232 240 237 199 220 246 237 207 193 159 79 96 105 102 101 94 89 82 71 62 57 63 66 73 58 52 46 30 12 7 20 18 5 359 1 7 8 2 7 7 3 7 2 359 360 1 2 1 nan nan nan nan nan nan nan nan nan nan nan nan
220 220 223 219 214 213 213 217 224 231 245 260 278 289 297 294 290 294 291 291 289 279 262 233 222 233 236 237 216 228 246 247 191 172 161 121 126 108 99 99 100 94 84 80 70 63 59 60 58 64 23 23 19 0 350 356 8 7 359 2 3 359 355 0 3 356 350 347 341 343 350 nan nan nan nan nan nan nan nan nan nan nan nan nan nan
222 219 216 215 217 219 221 226 233 244 256 270 282 291 295 294 296 297 294 291 289 280 268 248 225 225 236 238 223 231 249 261 177 143 154 148 143 113 103 101 96 89 88 88 76 66 63 60 52 41 39 15 2 3 345 345 353 353 356 2 2 351 347 350 352 349 348 351 352 351 351 347 341 337 340 nan nan nan nan nan nan nan nan nan nan
219 217 213 216 220 223 225 230 238 249 263 277 288 292 292 296 297 299 296 292 290 284 273 260 237 224 230 234 220 228 249 268 258 147 154 155 153 129 118 109 97 77 80 80 68 61 53 48 37 34 20 11 350 345 338 337 342 344 346 351 358 347 341 338 343 345 343 344 344 338 336 338 337 339 340 335 nan nan nan nan nan nan nan nan nan
216 215 212 213 219 225 228 232 240 252 264 276 279 284 289 299 304 305 302 300 296 285 275 262 247 235 231 229 224 220 241 272 303 153 154 169 158 139 129 115 92 58 59 37 35 42 50 39 33 8 9 6 351 341 342 339 338 343 336 338 343 336 328 330 334 336 339 342 339 330 322 319 321 327 330 330 333 341 nan nan nan nan nan nan nan
217 216 213 213 217 227 233 236 242 249 258 263 280 301 295 293 304 302 299 298 298 291 277 256 233 225 225 228 229 239 257 280 284 93 100 104 100 113 123 120 102 87 61 49 45 40 36 46 24 6 10 5 346 341 343 341 337 336 340 337 335 322 312 311 318 332 340 343 338 333 330 324 328 334 337 340 341 339 337 337 nan nan nan nan nan
217 219 218 217 220 224 230 235 246 253 258 264 293 298 309 315 306 302 300 297 296 297 292 262 221 211 213 225 222 244 277 232 143 95 100 88 72 66 68 66 57 44 47 38 15 9 19 34 32 22 17 15 358 347 343 341 339 341 336 328 320 307 294 288 297 325 336 334 331 334 340 334 333 337 340 344 344 341 341 342 345 350 nan nan nan
221 222 221 220 220 221 223 231 245 257 261 277 294 302 310 319 316 306 297 292 293 298 297 281 224 211 208 215 219 214 209 186 167 161 102 68 60 50 46 42 34 29 15 12 14 11 11 18 26 23 12 20 19 348 339 339 337 334 326 317 305 293 294 312 326 341 335 325 326 332 349 336 331 338 344 342 339 338 341 342 345 347 347 348 nan
223 225 222 222 223 225 227 236 248 262 262 281 296 303 309 315 322 317 299 293 295 298 296 282 225 208 205 204 195 197 196 214 179 157 171 195 358 30 40 36 26 10 8 11 11 7 5 16 26 32 20 14 16 358 341 337 332 331 319 300 293 306 320 332 342 346 351 324 324 336 350 336 328 338 344 338 334 336 337 338 342 344 343 343 341
229 228 228 226 227 232 237 244 250 257 266 277 298 304 307 314 320 313 302 305 303 303 300 241 216 196 188 188 186 182 183 189 194 202 210 206 231 310 332 333 335 347 353 4 7 11 7 2 14 30 24 8 5 352 341 332 335 331 315 304 313 315 320 344 348 350 351 324 328 333 347 343 327 331 340 338 329 327 328 333 338 339 339 337 336
234 232 228 226 227 234 243 252 255 258 260 279 290 302 306 312 316 308 293 298 299 294 265 212 194 187 181 182 174 171 180 191 212 240 247 268 289 296 350 6 336 332 333 339 344 343 345 348 358 8 15 10 6 1 348 340 340 330 314 324 329 318 328 346 339 348 351 333 328 331 343 344 320 326 337 334 325 329 333 334 338 338 335 334 336
225 224 224 226 231 241 251 260 260 259 257 282 290 298 304 308 309 291 287 292 304 293 246 212 198 199 189 180 182 184 190 201 232 294 300 289 297 315 319 323 319 322 331 340 342 346 348 348 349 356 360 4 4 357 346 341 333 322 317 325 313 315 333 347 351 348 351 333 331 334 339 347 330 327 337 333 328 334 334 330 335 337 335 333 336
223 225 227 233 236 240 250 258 262 253 251 275 292 297 298 301 292 283 284 282 286 297 254 219 209 203 199 196 201 202 203 220 260 301 313 310 304 312 311 311 304 311 325 321 337 350 357 360 5 4 4 7 8 4 354 345 338 331 326 327 321 323 337 347 352 351 352 337 332 334 338 347 339 330 335 338 335 341 338 332 328 330 332 333 333
221 224 228 231 238 243 252 260 263 258 256 271 290 294 297 299 299 286 278 281 285 279 253 231 225 221 216 225 219 210 213 232 266 297 307 300 299 305 307 306 311 322 325 321 323 332 346 357 0 0 0 1 1 1 354 344 340 330 323 324 325 330 339 344 351 354 352 339 333 328 335 346 337 330 332 334 339 345 340 333 329 324 325 328 331
225 228 233 236 241 245 251 256 263 267 255 266 288 295 300 301 299 282 279 277 279 272 255 237 239 237 230 240 265 246 229 234 265 289 302 299 298 301 303 302 311 321 317 319 328 343 335 331 336 337 337 343 345 341 336 336 335 331 322 325 329 332 338 342 345 347 352 351 336 327 335 341 336 336 328 326 341 343 334 329 326 324 323 319 317